Flag for Morocco Weather past 2 weeks in Rabat, Morocco

Now
57 °F

Partly cloudy.


Feels Like: 55 °F
Forecast: N/A
Wind: 9 mph from Northwest

Location: Rabat-Sale

Current Time: Jan 31, 2015 at 10:10:13 PM

Latest Report: Jan 31, 2015 at 9:00 PM


Visibility: 4 mi

Pressure: 30.07 "Hg

Humidity: 67%

Dew point: 46 °F

Location of RabatLocation

Historic Weather in Rabat — Graph

°F

Rabat temperature yesterday

Maximum temperature yesterday: 63 °F (at 2:00 PM)
Minimum temperature yesterday: 54 °F (at 12:00 AM)
Average temperature yesterday: 58 °F

Past Weeks' High & Low Weather Summary

 TemperatureHumidityPressure
High63 °F (Jan 24, 1:00 PM)100% (Jan 24, 3:30 AM)30.39 "Hg (Jan 24, 3:30 AM)
Low37 °F (Jan 25, 5:00 AM)48% (Jan 17, 2:30 PM)29.80 "Hg (Jan 19, 3:30 AM)
Average53 °F80%30.18 "Hg
* Reported Jan 16 9:00 PM — Jan 31 9:00 PM, Rabat, Weather by CustomWeather, © 2014

Note: Actual official high and low records may vary slightly from our data, if they occured in-between our weather recording intervals... More about our weather records

Advertising

Rabat weather history for previous 24 hours

 ConditionsComfort  
Time TempWeatherWind HumidityBarometerVisibility
9:00 PM
Jan 31
57 °FPartly cloudy.9 mph67%30.07 "Hg4 mi
8:30 PM57 °FPartly cloudy.12 mph72%30.04 "Hg4 mi
8:00 PM57 °FPartly cloudy.12 mph82%30.04 "Hg4 mi
7:30 PM57 °FPartly cloudy.8 mph94%30.04 "Hg4 mi
7:00 PM55 °FDrizzle. Mostly cloudy.8 mph94%30.01 "Hg3 mi
6:30 PM55 °FMostly cloudy.9 mph94%30.01 "Hg4 mi
6:00 PM57 °FDrizzle. Overcast.7 mph88%30.01 "Hg3 mi
5:30 PM55 °FRain. Overcast.13 mph94%30.01 "Hg2 mi
5:00 PM57 °FRain. Overcast.15 mph94%29.98 "Hg1 mi
4:30 PM57 °FDrizzle. Fog.14 mph94%29.98 "Hg2 mi
4:00 PM57 °FDrizzle. Fog.17 mph88%29.98 "Hg2 mi
3:30 PM59 °FMore clouds than sun.17 mph82%29.98 "Hg5 mi
3:00 PM59 °FMore clouds than sun.16 mph77%29.98 "Hg5 mi
2:30 PM61 °FMore clouds than sun.17 mph77%29.98 "Hg5 mi
2:00 PM59 °FMore clouds than sun.13 mph82%29.98 "Hg5 mi
1:30 PM61 °FMore clouds than sun.17 mph72%29.98 "Hg5 mi
1:00 PM61 °FMore clouds than sun.13 mph77%30.01 "Hg5 mi
12:30 PM61 °FMore clouds than sun.14 mph77%30.01 "Hg5 mi
12:00 PM61 °FMore clouds than sun.16 mph72%30.01 "Hg5 mi
11:30 AM61 °FPartly sunny.15 mph72%30.04 "Hg5 mi
11:00 AM61 °FPartly sunny.13 mph72%30.04 "Hg5 mi
10:30 AM59 °FBroken clouds.13 mph77%30.04 "Hg4 mi
10:00 AM59 °FBroken clouds.14 mph72%30.04 "Hg4 mi
9:30 AM59 °FBroken clouds.12 mph72%30.01 "Hg4 mi
9:00 AM57 °FBroken clouds.12 mph88%30.01 "Hg4 mi
8:30 AM57 °FLight rain. Fog.15 mph94%30.01 "Hg1 mi
8:00 AM57 °FLight rain. Fog.15 mph94%29.98 "Hg1 mi
7:30 AM57 °FLight rain. Fog.14 mph94%29.98 "Hg1 mi
7:00 AM57 °FLight rain. Fog.15 mph94%29.98 "Hg1 mi
6:30 AM57 °FDrizzle. Fog.14 mph94%29.98 "Hg2 mi
6:00 AM57 °FDrizzle. Fog.15 mph94%29.95 "Hg2 mi
5:30 AM57 °FDrizzle. Fog.13 mph94%29.95 "Hg2 mi
5:00 AM57 °FDrizzle. Fog.14 mph94%29.95 "Hg2 mi
4:30 AM57 °FDrizzle. Fog.14 mph94%29.95 "Hg2 mi
4:00 AM57 °FDrizzle. Fog.12 mph94%29.98 "Hg2 mi
3:00 AM57 °FDrizzle. Fog.13 mph94%29.98 "Hg2 mi
2:30 AM57 °FDrizzle. Fog.13 mph94%30.01 "Hg2 mi
2:00 AM57 °FDrizzle. Fog.12 mph94%30.01 "Hg2 mi
1:30 AM57 °FDrizzle. Fog.10 mph94%30.01 "Hg2 mi
1:00 AM57 °FDrizzle. Fog.13 mph94%30.04 "Hg2 mi
12:30 AM57 °FDrizzle. Fog.9 mph94%30.04 "Hg2 mi
12:00 AM57 °FDrizzle. Fog.10 mph94%30.04 "Hg2 mi
11:30 PM
Jan 30
57 °FDrizzle. Fog.10 mph94%30.04 "Hg1 mi
11:00 PM57 °FDrizzle. Fog.8 mph94%30.07 "Hg1 mi
10:30 PM57 °FMostly cloudy.8 mph94%30.07 "Hg5 mi
10:00 PM59 °FMostly cloudy.10 mph88%30.07 "Hg5 mi
Weather by CustomWeather, © 2014

See weather overviewHow to use our weather pages